AIC4217 VABB-OMDB

Flight info

Callsign AIC4217
Flight time N/A
Altitude 40000
Route RAXET2A SAKUN V2 SUGID DCT VUSET A454 PASOV B540 MIVEK P574 IMPED
Aircraft A359/H-SDE2E3GHIJ3J4J5LM1ORWXY/LB1D1

Departure

Time 2026-05-08 07:33
Airport Chhatrapati Shivaji Maharaj International Airport (VABB)

Arrival

Time N/A
Airport Dubai International Airport (OMDB)
Time Latitude Longitude Altitude Speed Heading
2026-05-08 06:59 19.09335 72.87028 40 ft 0 kts 63°
2026-05-08 07:21 19.09332 72.87019 40 ft 2 kts 63°
2026-05-08 07:21 19.09325 72.87006 40 ft 2 kts 63°
2026-05-08 07:21 19.09318 72.86991 40 ft 2 kts 63°
2026-05-08 07:21 19.09312 72.86976 39 ft 2 kts 80°
2026-05-08 07:22 19.09311 72.86960 39 ft 2 kts 98°
2026-05-08 07:22 19.09315 72.86944 40 ft 2 kts 114°
2026-05-08 07:22 19.09323 72.86929 40 ft 2 kts 130°
2026-05-08 07:22 19.09325 72.86926 40 ft 1 kts 134°
2026-05-08 07:23 19.09307 72.86947 39 ft 3 kts 134°
2026-05-08 07:23 19.09303 72.86951 39 ft 0 kts 135°
2026-05-08 07:26 19.09302 72.86952 39 ft 0 kts 135°
2026-05-08 07:27 19.09301 72.86953 39 ft 1 kts 135°
2026-05-08 07:27 19.09288 72.86967 39 ft 4 kts 135°
2026-05-08 07:27 19.09261 72.86996 38 ft 6 kts 133°
2026-05-08 07:28 19.09239 72.87048 38 ft 8 kts 100°
2026-05-08 07:28 19.09236 72.87122 38 ft 10 kts 89°
2026-05-08 07:28 19.09235 72.87205 38 ft 11 kts 104°
2026-05-08 07:28 19.09166 72.87257 37 ft 14 kts 168°
2026-05-08 07:29 19.09065 72.87292 35 ft 16 kts 128°
2026-05-08 07:29 19.09053 72.87420 34 ft 18 kts 88°
2026-05-08 07:29 19.09055 72.87559 36 ft 18 kts 89°
2026-05-08 07:29 19.09057 72.87701 37 ft 19 kts 89°
2026-05-08 07:30 19.09058 72.87853 38 ft 20 kts 90°
2026-05-08 07:30 19.09060 72.87976 42 ft 11 kts 89°
2026-05-08 07:30 19.09035 72.88030 44 ft 7 kts 149°
2026-05-08 07:30 19.08984 72.88051 44 ft 8 kts 167°
2026-05-08 07:31 19.08912 72.88052 42 ft 10 kts 199°
2026-05-08 07:31 19.08888 72.87991 41 ft 10 kts 263°
2026-05-08 07:31 19.08885 72.87907 39 ft 12 kts 269°
2026-05-08 07:31 19.08882 72.87795 36 ft 16 kts 268°
2026-05-08 07:32 19.08880 72.87642 34 ft 34 kts 269°
2026-05-08 07:32 19.08876 72.87141 34 ft 100 kts 268°
2026-05-08 07:32 19.08861 72.86190 38 ft 156 kts 269°
2026-05-08 07:32 19.08847 72.84920 386 ft 176 kts 269°
2026-05-08 07:33 19.08852 72.83634 1113 ft 172 kts 270°
2026-05-08 07:33 19.08843 72.82366 1770 ft 173 kts 270°
2026-05-08 07:33 19.08823 72.81012 1972 ft 196 kts 270°
2026-05-08 07:33 19.08788 72.79459 2095 ft 218 kts 269°
2026-05-08 07:34 19.08759 72.77772 2381 ft 232 kts 270°
2026-05-08 07:34 19.08744 72.75998 2706 ft 244 kts 270°
2026-05-08 07:34 19.08724 72.74149 3055 ft 253 kts 274°
2026-05-08 07:34 19.09033 72.72280 3405 ft 262 kts 288°
2026-05-08 07:35 19.09741 72.70459 3889 ft 266 kts 298°
2026-05-08 07:35 19.10657 72.68727 4441 ft 268 kts 298°
2026-05-08 07:35 19.11435 72.66910 4996 ft 271 kts 292°
2026-05-08 07:35 19.12123 72.65022 5556 ft 274 kts 291°
2026-05-08 07:36 19.12786 72.63120 6117 ft 277 kts 291°
2026-05-08 07:36 19.13455 72.61170 6697 ft 281 kts 291°
2026-05-08 07:36 19.14126 72.59203 7283 ft 284 kts 291°
2026-05-08 07:36 19.14804 72.57210 7863 ft 287 kts 291°
2026-05-08 07:37 19.15488 72.55196 8432 ft 290 kts 291°
2026-05-08 07:37 19.16177 72.53167 8994 ft 293 kts 290°
2026-05-08 07:37 19.16872 72.51115 9549 ft 296 kts 290°
2026-05-08 07:37 19.17576 72.49038 10099 ft 299 kts 290°
2026-05-08 07:38 19.18284 72.46945 10641 ft 301 kts 290°
2026-05-08 07:38 19.18999 72.44830 11178 ft 304 kts 290°
2026-05-08 07:38 19.19728 72.42674 11717 ft 306 kts 290°
2026-05-08 07:38 19.20448 72.40542 12244 ft 309 kts 290°
2026-05-08 07:39 19.21185 72.38359 12774 ft 311 kts 290°
2026-05-08 07:39 19.21919 72.36181 13289 ft 314 kts 290°
2026-05-08 07:39 19.22657 72.33990 13793 ft 316 kts 290°
2026-05-08 07:39 19.23416 72.31724 14300 ft 319 kts 289°
2026-05-08 07:40 19.24165 72.29491 14786 ft 321 kts 289°
2026-05-08 07:40 19.24926 72.27222 15264 ft 323 kts 289°
2026-05-08 07:40 19.25676 72.24989 15726 ft 326 kts 289°
2026-05-08 07:40 19.26447 72.22695 16193 ft 328 kts 289°
2026-05-08 07:41 19.27220 72.20395 16652 ft 330 kts 289°
2026-05-08 07:41 19.27997 72.18082 17104 ft 333 kts 289°
2026-05-08 07:41 19.28787 72.15733 17554 ft 335 kts 289°
2026-05-08 07:41 19.29573 72.13392 17993 ft 337 kts 289°
2026-05-08 07:42 19.30372 72.11015 18430 ft 339 kts 289°
2026-05-08 07:42 19.31159 72.08669 18852 ft 341 kts 289°
2026-05-08 07:42 19.31971 72.06250 19278 ft 344 kts 289°
2026-05-08 07:42 19.32782 72.03829 19697 ft 346 kts 289°
2026-05-08 07:43 19.33594 72.01408 20110 ft 348 kts 289°
2026-05-08 07:43 19.34378 71.98948 20513 ft 350 kts 283°
2026-05-08 07:43 19.34751 71.96378 20918 ft 351 kts 274°
2026-05-08 07:43 19.34925 71.93769 21320 ft 353 kts 273°
2026-05-08 07:44 19.34963 71.93120 21417 ft 354 kts 273°